N9EA Weather Reports


time (UTC)temp
C
wind
direction
speed
KPH
gust
KPH
rain 1hr
cm
rain 24hr
cm
rain mn
cm
humidity
%
barometer
mb
20260906150613 23 313 0.0 0.0 0.00 0.00 0.00 76 1018.6
20260906150109 23 316 0.0 0.0 0.00 0.00 0.00 76 1018.5
20260906145607 23 313 0.0 0.0 0.00 0.00 0.00 77 1018.5
20260906145102 23 315 0.0 0.0 0.00 0.00 0.00 79 1018.5
20260906144556 22 314 0.0 0.0 0.00 0.00 0.00 80 1018.7
20260906144052 22 313 0.0 0.0 0.00 0.00 0.00 80 1018.5
20260906143546 22 315 0.0 0.0 0.00 0.00 0.00 81 1018.6
20260906143038 21 313 0.0 0.0 0.00 0.00 0.00 82 1018.3
20260906142537 21 317 0.0 0.0 0.00 0.00 0.00 82 1018.4
20260906142033 21 313 0.0 0.0 0.00 0.00 0.00 82 1018.4
20260906141531 21 310 0.0 0.0 0.00 0.00 0.00 82 1018.2
20260906141027 21 305 0.0 0.0 0.00 0.00 0.00 83 1018.3
20260906140526 21 310 0.0 0.0 0.00 0.00 0.00 83 1018.2
20260906140025 21 313 0.0 0.0 0.00 0.00 0.00 83 1018.2
20260906135522 21 306 0.0 0.0 0.00 0.00 0.00 84 1018.4
20260906135019 21 318 0.0 0.0 0.00 0.00 0.00 84 1018.2
20260906134514 21 310 0.0 0.0 0.00 0.00 0.00 84 1018.2
20260906134014 21 311 0.0 0.0 0.00 0.00 0.00 84 1018.3
20260906133510 21 305 0.0 0.0 0.00 0.00 0.00 85 1018.1
20260906133005 21 306 0.0 0.0 0.00 0.00 0.00 85 1018.1
20260906132500 20 319 0.0 0.0 0.00 0.00 0.00 85 1018.0
20260906131955 20 317 0.0 0.0 0.00 0.00 0.00 85 1018.2
20260906131451 20 305 0.0 0.0 0.00 0.00 0.00 86 1018.2
20260906130946 20 308 0.0 0.0 0.00 0.00 0.00 86 1018.1
20260906130445 20 308 0.0 0.0 0.00 0.00 0.00 86 1018.2
20260906125941 20 307 0.0 0.0 0.00 0.00 0.00 87 1018.2
20260906125438 20 308 0.0 0.0 0.00 0.00 0.00 87 1018.3
20260906124938 20 304 0.0 0.0 0.00 0.00 0.00 87 1018.4
20260906124433 20 305 0.0 0.0 0.00 0.00 0.00 87 1018.3
20260906123928 20 306 0.0 0.0 0.00 0.00 0.00 87 1018.3
20260906123427 20 306 0.0 0.0 0.00 0.00 0.00 87 1018.5
20260906122921 20 306 0.0 0.0 0.00 0.00 0.00 87 1018.4
20260906122416 20 306 0.0 0.0 0.00 0.00 0.00 88 1018.4
20260906121914 20 306 0.0 0.0 0.00 0.00 0.00 88 1018.3
20260906121409 20 305 0.0 0.0 0.00 0.00 0.00 88 1018.0
20260906120905 20 305 0.0 0.0 0.00 0.00 0.00 88 1018.0
20260906120401 20 305 0.0 0.0 0.00 0.00 0.00 88 1017.9
20260906115856 20 305 0.0 0.0 0.00 0.00 0.00 88 1018.2
20260906115352 20 305 0.0 0.0 0.00 0.00 0.00 88 1017.8
20260906114851 20 305 0.0 0.0 0.00 0.00 0.00 88 1017.6
20260906114346 20 305 0.0 0.0 0.00 0.00 0.00 88 1017.5
20260906113841 20 305 0.0 0.0 0.00 0.00 0.00 88 1017.4
20260906113340 20 305 0.0 0.0 0.00 0.00 0.00 88 1017.2
20260906112836 20 305 0.0 0.0 0.00 0.00 0.00 88 1017.2
20260906112332 20 304 0.0 0.0 0.00 0.00 0.00 88 1017.1
20260906111832 20 305 0.0 0.0 0.00 0.00 0.00 88 1017.0
20260906111326 20 318 0.0 0.0 0.00 0.00 0.00 88 1017.1
20260906110821 20 319 0.0 0.0 0.00 0.00 0.00 88 1017.1
20260906110317 20 305 0.0 0.0 0.00 0.00 0.00 88 1016.8
20260906105816 20 305 0.0 0.0 0.00 0.00 0.00 88 1017.0
20260906105312 20 306 0.0 0.0 0.00 0.00 0.00 88 1016.9
20260906104807 20 306 0.0 0.0 0.00 0.00 0.00 88 1016.8
20260906104306 20 305 0.0 0.0 0.00 0.00 0.00 88 1016.7
20260906103804 20 305 0.0 0.0 0.00 0.00 0.00 88 1016.5
20260906103304 20 308 0.0 0.0 0.00 0.00 0.00 88 1016.4
20260906102759 20 305 0.0 0.0 0.00 0.00 0.00 88 1016.4
20260906102258 20 305 0.0 0.0 0.00 0.00 0.00 87 1016.2
20260906101753 20 305 0.0 0.0 0.00 0.00 0.00 87 1016.1
20260906101248 20 305 0.0 0.0 0.00 0.00 0.00 87 1016.0
20260906100744 20 305 0.0 0.0 0.00 0.00 0.00 87 1016.2
20260906100243 20 305 0.0 0.0 0.00 0.00 0.00 87 1016.2
20260906095738 20 306 0.0 0.0 0.00 0.00 0.00 87 1016.3
20260906095233 20 306 0.0 0.0 0.00 0.00 0.00 87 1016.3
20260906094732 20 305 0.0 0.0 0.00 0.00 0.00 87 1016.2
20260906094228 20 306 0.0 0.0 0.00 0.00 0.00 87 1016.1
20260906093724 20 306 0.0 0.0 0.00 0.00 0.00 87 1016.3
20260906093214 20 306 0.0 0.0 0.00 0.00 0.00 86 1016.3
20260906092709 20 306 0.0 0.0 0.00 0.00 0.00 86 1016.4
20260906092209 20 306 0.0 0.0 0.00 0.00 0.00 86 1016.2
20260906091705 20 306 0.0 0.0 0.00 0.00 0.00 86 1016.1
20260906091201 20 306 0.0 0.0 0.00 0.00 0.00 86 1016.2
20260906090657 20 306 0.0 0.0 0.00 0.00 0.00 86 1016.1
20260906090156 21 306 0.0 0.0 0.00 0.00 0.00 86 1016.0
20260906085656 21 306 0.0 0.0 0.00 0.00 0.00 85 1016.1
20260906085154 21 306 0.0 0.0 0.00 0.00 0.00 85 1016.3
20260906084649 21 306 0.0 0.0 0.00 0.00 0.00 85 1016.3
20260906084149 21 306 0.0 0.0 0.00 0.00 0.00 85 1016.3
20260906083643 21 306 0.0 0.0 0.00 0.00 0.00 84 1016.0
20260906083138 21 306 0.0 0.0 0.00 0.00 0.00 84 1016.1
20260906082629 21 306 0.0 0.0 0.00 0.00 0.00 84 1016.3
20260906082124 21 306 0.0 0.0 0.00 0.00 0.00 84 1016.1
20260906081620 21 306 0.0 0.0 0.00 0.00 0.00 84 1016.1
20260906081115 21 306 0.0 0.0 0.00 0.00 0.00 84 1016.2
20260906080612 21 312 0.0 0.0 0.00 0.00 0.00 84 1016.2
20260906080108 21 310 0.0 0.0 0.00 0.00 0.00 84 1016.2
20260906075607 21 306 0.0 0.0 0.00 0.00 0.00 83 1016.0
20260906075101 21 320 0.0 0.0 0.00 0.00 0.00 83 1016.0
20260906074556 21 319 0.0 0.0 0.00 0.00 0.00 83 1016.1
20260906074050 21 308 0.0 0.0 0.00 0.00 0.00 83 1016.2
20260906073545 21 319 0.0 0.0 0.00 0.00 0.00 83 1016.2
20260906073040 21 320 0.0 0.0 0.00 0.00 0.00 83 1016.3
20260906072535 21 319 0.0 0.0 0.00 0.00 0.00 83 1016.2
20260906072032 21 305 0.0 0.0 0.00 0.00 0.00 83 1016.2
20260906071527 21 306 0.0 0.0 0.00 0.00 0.00 83 1016.3
20260906071022 22 303 0.0 0.0 0.00 0.00 0.00 83 1016.5
20260906070518 22 302 0.0 0.0 0.00 0.00 0.00 82 1016.5
20260906070009 22 303 0.0 0.0 0.00 0.00 0.00 82 1016.5
20260906065508 22 302 0.0 0.0 0.00 0.00 0.00 82 1016.5
20260906065003 22 301 0.0 0.0 0.00 0.00 0.00 82 1016.7
20260906064459 22 306 0.0 0.0 0.00 0.00 0.00 82 1016.4
20260906063954 22 305 0.0 0.0 0.00 0.00 0.00 82 1016.9
20260906063450 22 323 0.0 0.0 0.00 0.00 0.00 82 1016.5
20260906062950 22 324 0.0 0.0 0.00 0.00 0.00 82 1016.8
20260906062445 22 324 0.0 0.0 0.00 0.00 0.00 82 1016.3
20260906061940 22 324 0.0 0.0 0.00 0.00 0.00 82 1016.7
20260906061436 22 330 0.0 0.0 0.00 0.00 0.00 82 1016.5
20260906060930 22 330 0.0 0.0 0.00 0.00 0.00 82 1016.5
20260906060427 22 330 0.0 0.0 0.00 0.00 0.00 82 1016.4
20260906055923 22 324 0.0 0.0 0.00 0.00 0.00 82 1016.3
20260906055419 22 304 0.0 0.0 0.00 0.00 0.00 82 1016.3
20260906054914 22 303 0.0 0.0 0.00 0.00 0.00 81 1016.4
20260906054409 22 303 0.0 0.0 0.00 0.00 0.00 81 1016.4
20260906053905 23 328 0.0 0.0 0.00 0.00 0.00 81 1016.5
20260906053401 23 329 0.0 0.0 0.00 0.00 0.00 81 1016.5
20260906052856 23 329 0.0 0.0 0.00 0.00 0.00 81 1016.7
20260906052352 23 329 0.0 0.0 0.00 0.00 0.00 81 1016.5
20260906051849 23 328 0.0 0.0 0.00 0.00 0.00 80 1016.7
20260906051349 23 328 0.0 0.0 0.00 0.00 0.00 80 1016.3
20260906050845 23 329 0.0 0.0 0.00 0.00 0.00 80 1016.5
20260906050339 23 329 0.0 0.0 0.00 0.00 0.00 80 1016.2
20260906045838 23 330 0.0 0.0 0.00 0.00 0.00 80 1016.4
20260906045332 23 324 0.0 0.0 0.00 0.00 0.00 80 1016.3
20260906044829 23 320 0.0 0.0 0.00 0.00 0.00 80 1016.1
20260906044329 23 323 0.0 0.0 0.00 0.00 0.00 80 1016.0
20260906043827 23 329 0.0 0.0 0.00 0.00 0.00 80 1015.9
20260906043321 23 328 0.0 0.0 0.00 0.00 0.00 80 1015.9
20260906042821 23 329 0.0 0.0 0.00 0.00 0.00 80 1015.9
20260906042320 23 330 0.0 0.0 0.00 0.00 0.00 79 1015.8
20260906041815 23 331 0.0 0.0 0.00 0.00 0.00 79 1015.8
20260906041311 23 324 0.0 0.0 0.00 0.00 0.00 79 1015.5
20260906040805 23 325 0.0 0.0 0.00 0.00 0.00 80 1015.4
20260906040301 23 324 0.0 0.0 0.00 0.00 0.00 80 1015.4
20260906035756 23 324 0.0 0.0 0.00 0.00 0.00 80 1015.2
20260906035252 23 323 0.0 0.0 0.00 0.00 0.00 80 1015.5
20260906034752 23 323 0.0 0.0 0.00 0.00 0.00 80 1015.2
20260906034252 23 323 0.0 0.0 0.00 0.00 0.00 79 1015.0
20260906033748 23 323 0.0 0.0 0.00 0.00 0.00 79 1015.4
20260906033247 23 323 0.0 0.0 0.00 0.00 0.00 79 1015.2
20260906032743 23 323 0.0 0.0 0.00 0.00 0.00 80 1015.3
20260906032243 23 323 0.0 0.0 0.00 0.00 0.00 80 1015.2
20260906031739 23 323 0.0 0.0 0.00 0.00 0.00 80 1014.8
20260906031234 23 323 0.0 0.0 0.00 0.00 0.00 80 1014.8
20260906030729 23 323 0.0 0.0 0.00 0.00 0.00 80 1014.9
20260906030224 23 323 0.0 0.0 0.00 0.00 0.00 80 1014.7
20260906025723 23 323 0.0 0.0 0.00 0.00 0.00 80 1014.8
20260906025218 23 323 0.0 0.0 0.00 0.00 0.00 80 1014.7
20260906024717 23 323 0.0 0.0 0.00 0.00 0.00 80 1014.7
20260906024216 23 323 0.0 0.0 0.00 0.00 0.00 80 1014.8
20260906023712 23 323 0.0 0.0 0.00 0.00 0.00 79 1014.6
20260906023207 23 324 0.0 0.0 0.00 0.00 0.00 79 1014.5
20260906022703 23 324 0.0 0.0 0.00 0.00 0.00 79 1014.8
20260906022158 23 324 0.0 0.0 0.00 0.00 0.00 79 1014.7
20260906021654 23 324 0.0 0.0 0.00 0.00 0.00 79 1014.7
20260906021152 23 324 0.0 0.0 0.00 0.00 0.00 79 1014.5
20260906020647 23 324 0.0 0.0 0.00 0.00 0.00 78 1014.5
20260906020142 24 324 0.0 0.0 0.00 0.00 0.00 78 1014.4
20260906015636 24 324 0.0 0.0 0.00 0.00 0.00 78 1014.3
20260906015134 24 324 0.0 0.0 0.00 0.00 0.00 78 1014.3
20260906014629 24 324 0.0 0.0 0.00 0.00 0.00 78 1014.2
20260906014126 24 324 0.0 0.0 0.00 0.00 0.00 77 1014.1
20260906013620 25 324 0.0 0.0 0.00 0.00 0.00 77 1014.1
20260906013116 25 324 0.0 0.0 0.00 0.00 0.00 76 1014.0
20260906012610 25 324 0.0 0.0 0.00 0.00 0.00 76 1014.2
20260906012105 25 324 0.0 0.0 0.00 0.00 0.00 76 1014.0
20260906011601 25 322 0.0 0.0 0.00 0.00 0.00 75 1014.3
20260906011055 25 324 0.0 0.0 0.00 0.00 0.00 75 1014.3
20260906010551 25 322 0.0 0.0 0.00 0.00 0.00 75 1014.1
20260906010047 25 323 0.0 0.0 0.00 0.00 0.00 75 1014.2
20260906005546 25 327 0.0 0.0 0.00 0.00 0.00 75 1014.2
20260906005045 25 306 0.0 0.0 0.00 0.00 0.00 75 1014.2
20260906004544 25 302 0.0 0.0 0.00 0.00 0.00 75 1014.2
20260906004040 26 322 0.0 0.0 0.00 0.00 0.00 75 1014.1
20260906003535 26 330 0.0 0.0 0.00 0.00 0.00 74 1014.2
20260906003031 26 330 0.0 0.0 0.00 0.00 0.00 74 1014.2
20260906002531 26 331 0.0 0.0 0.00 0.00 0.00 74 1014.2
20260906002025 26 302 0.0 0.0 0.00 0.00 0.00 73 1014.2
20260906001521 26 332 0.0 0.0 0.00 0.00 0.00 73 1014.2
20260906001016 27 301 0.0 0.0 0.00 0.00 0.00 73 1014.0
20260906000512 27 299 0.0 0.0 0.00 0.00 0.00 73 1014.2
20260906000012 27 323 0.0 0.0 0.00 0.00 0.00 73 1013.8
20260905235506 27 304 0.0 0.0 0.00 0.00 0.00 73 1013.6
20260905235000 27 335 0.0 0.0 0.00 0.00 0.00 72 1013.7
20260905234456 27 315 0.0 0.0 0.00 0.00 0.00 72 1013.8
20260905233950 28 303 0.0 0.0 0.00 0.00 0.00 71 1013.8
20260905233447 28 308 0.0 0.0 0.00 0.00 0.00 71 1013.9
20260905232945 28 304 0.0 0.0 0.00 0.00 0.00 71 1013.7
20260905232442 28 329 0.0 0.0 0.00 0.00 0.00 71 1013.9
20260905231936 28 329 0.0 0.0 0.00 0.00 0.00 71 1013.8
20260905231432 28 318 0.0 0.0 0.00 0.00 0.00 70 1013.8
20260905230923 29 329 0.0 0.0 0.00 0.00 0.00 71 1013.7
20260905230420 30 332 0.0 0.0 0.00 0.00 0.00 70 1013.6
20260905225919 30 329 0.0 0.0 0.00 0.00 0.00 69 1013.6
20260905225414 30 331 0.0 0.0 0.00 0.00 0.00 68 1013.6
20260905224909 30 323 0.0 0.0 0.00 0.00 0.00 68 1013.6
20260905224405 30 324 0.0 0.0 0.00 0.00 0.00 68 1013.8
20260905223900 30 323 0.0 0.0 0.00 0.00 0.00 68 1013.3
20260905223357 30 323 0.0 0.0 0.00 0.00 0.00 68 1013.2
20260905222852 30 332 0.0 0.0 0.00 0.00 0.00 67 1013.2
20260905222351 30 322 0.0 0.0 0.00 0.00 0.00 68 1013.3
20260905221847 30 324 0.0 0.0 0.00 0.00 0.00 67 1013.1
20260905221343 30 324 0.0 0.0 0.00 0.00 0.00 67 1013.3
20260905220838 30 323 0.0 0.0 0.00 0.00 0.00 68 1013.2
20260905220335 31 323 0.0 0.0 0.00 0.00 0.00 68 1013.4
20260905215834 30 322 0.0 0.0 0.00 0.00 0.00 69 1013.4
20260905215329 31 324 0.0 0.0 0.00 0.00 0.00 68 1013.3
20260905214826 31 322 0.0 0.0 0.00 0.00 0.00 68 1013.2
20260905214321 31 324 0.0 0.0 0.00 0.00 0.00 67 1013.2
20260905213816 31 315 0.0 0.0 0.00 0.00 0.00 67 1013.0
20260905213313 31 320 0.0 0.0 0.00 0.00 0.00 66 1013.0
20260905212813 31 324 0.0 0.0 0.00 0.00 0.00 67 1013.0
20260905212313 31 321 0.0 0.0 0.00 0.00 0.00 67 1012.9
20260905211807 31 324 0.0 0.0 0.00 0.00 0.00 68 1012.8
20260905211302 31 324 0.0 0.0 0.00 0.00 0.00 67 1013.0
20260905210759 32 320 0.0 0.0 0.00 0.00 0.00 67 1013.0
20260905210258 32 332 0.0 0.0 0.00 0.00 0.00 66 1013.1
20260905205757 32 331 0.0 0.0 0.00 0.00 0.00 66 1013.0
20260905205252 32 325 0.0 0.0 0.00 0.00 0.00 64 1013.0
20260905204751 33 324 0.0 0.0 0.00 0.00 0.00 64 1013.2
20260905204248 32 321 0.0 0.0 0.00 0.00 0.00 65 1013.1
20260905203747 33 323 0.0 0.0 0.00 0.00 0.00 63 1013.3
20260905203242 32 323 0.0 0.0 0.00 0.00 0.00 64 1013.2
20260905202738 33 318 0.0 0.0 0.00 0.00 0.00 63 1013.5
20260905202238 33 327 0.0 0.0 0.00 0.00 0.00 63 1013.2
20260905201733 33 325 0.0 0.0 0.00 0.00 0.00 63 1013.3
20260905201228 33 328 0.0 0.0 0.00 0.00 0.00 63 1013.1
20260905200723 33 329 0.0 0.0 0.00 0.00 0.00 63 1013.1
20260905200219 32 323 0.0 0.0 0.00 0.00 0.00 64 1013.1
20260905195717 32 325 0.0 0.0 0.00 0.00 0.00 64 1013.1
20260905195213 33 329 0.0 0.0 0.00 0.00 0.00 63 1013.2
20260905194708 33 315 0.0 0.0 0.00 0.00 0.00 63 1013.2
20260905194207 32 306 0.0 0.0 0.00 0.00 0.00 64 1013.3
20260905193701 33 324 0.0 0.0 0.00 0.00 0.00 64 1013.4
20260905193156 32 324 0.0 0.0 0.00 0.00 0.00 64 1013.4
20260905192652 33 326 0.0 0.0 0.00 0.00 0.00 63 1013.7
20260905192149 33 323 0.0 0.0 0.00 0.00 0.00 63 1013.2
20260905191648 32 324 0.0 0.0 0.00 0.00 0.00 63 1013.5
20260905191146 33 324 0.0 0.0 0.00 0.00 0.00 63 1013.4
20260905190644 33 324 0.0 0.0 0.00 0.00 0.00 62 1013.4
20260905190144 33 318 0.0 0.0 0.00 0.00 0.00 62 1013.4
20260905185637 33 313 0.0 0.0 0.00 0.00 0.00 63 1013.6
20260905185132 33 323 0.0 0.0 0.00 0.00 0.00 63 1013.7
20260905184632 32 324 0.0 0.0 0.00 0.00 0.00 64 1013.5
20260905184131 32 324 0.0 0.0 0.00 0.00 0.00 64 1013.6
20260905183631 33 324 0.0 0.0 0.00 0.00 0.00 62 1013.4
20260905183126 33 324 0.0 0.0 0.00 0.00 0.00 63 1013.6
20260905182625 33 323 0.0 0.0 0.00 0.00 0.00 63 1013.6
20260905182125 32 324 0.0 0.0 0.00 0.00 0.00 63 1013.8
20260905181620 32 324 0.0 0.0 0.00 0.00 0.00 64 1013.8
20260905181119 32 324 0.0 0.0 0.00 0.00 0.00 63 1013.8
20260905180614 32 318 0.0 0.0 0.00 0.00 0.00 64 1013.6
20260905180110 32 324 0.0 0.0 0.00 0.00 0.00 64 1013.7
20260905175609 33 324 0.0 0.0 0.00 0.00 0.00 62 1013.8
20260905175104 33 323 0.0 0.0 0.00 0.00 0.00 62 1013.8
20260905174600 33 323 0.0 0.0 0.00 0.00 0.00 63 1014.0
20260905174055 32 324 0.0 0.0 0.00 0.00 0.00 62 1013.9
20260905173552 32 324 0.0 0.0 0.00 0.00 0.00 62 1014.1
20260905173047 32 324 0.0 0.0 0.00 0.00 0.00 63 1013.9
20260905172545 32 324 0.0 0.0 0.00 0.00 0.00 62 1014.0
20260905172040 32 324 0.0 0.0 0.00 0.00 0.00 63 1014.1
20260905171537 32 324 0.0 0.0 0.00 0.00 0.00 62 1014.1
20260905171033 33 324 0.0 0.0 0.00 0.00 0.00 61 1014.1
20260905170529 32 324 0.0 0.0 0.00 0.00 0.00 63 1014.0
20260905170024 32 316 0.0 0.0 0.00 0.00 0.00 62 1014.2
20260905165519 32 324 0.0 0.0 0.00 0.00 0.00 63 1014.2
20260905165014 32 323 0.0 0.0 0.00 0.00 0.00 63 1014.2
20260905164514 31 317 0.0 0.0 0.00 0.00 0.00 64 1014.3
20260905164008 32 323 0.0 0.0 0.00 0.00 0.00 64 1014.3
20260905163504 31 324 0.0 0.0 0.00 0.00 0.00 63 1014.2
20260905163000 32 323 0.0 0.0 0.00 0.00 0.00 64 1014.3
20260905162456 31 317 0.0 0.0 0.00 0.00 0.00 64 1014.3
20260905161950 31 314 0.0 0.0 0.00 0.00 0.00 65 1014.2
20260905161449 31 324 0.0 0.0 0.00 0.00 0.00 65 1014.1
20260905160948 31 322 0.0 0.0 0.00 0.00 0.00 66 1014.1
20260905160442 31 320 0.0 0.0 0.00 0.00 0.00 65 1014.2
20260905155936 31 305 0.0 0.0 0.00 0.00 0.00 64 1014.2
20260905155431 31 324 0.0 0.0 0.00 0.00 0.00 65 1014.1
20260905154929 31 322 0.0 0.0 0.00 0.00 0.00 65 1014.2
20260905154425 31 323 0.0 0.0 0.00 0.00 0.00 65 1014.2
20260905153921 31 316 0.0 0.0 0.00 0.00 0.00 67 1014.1
20260905153417 31 317 0.0 0.0 0.00 0.00 0.00 67 1014.3
20260905152916 30 326 0.0 0.0 0.00 0.00 0.00 67 1014.1
20260905152416 30 319 0.0 0.0 0.00 0.00 0.00 68 1014.2
20260905151911 30 319 0.0 0.0 0.00 0.00 0.00 68 1014.1
20260905151407 30 321 0.0 0.0 0.00 0.00 0.00 66 1014.2
20260905150906 31 323 0.0 0.0 0.00 0.00 0.00 66 1013.9